Location: Newark
(52.2090°N, 4.1550°W)
Time: 19:10:40
(UTC+00:00)

Explorer 7 - Pass Details

Date: 27 September 2019
Orbit: 485 x 680 km, 50.3° (Epoch: 22 October)

Event Time Altitude Azimuth Distance (km) Brightness Sun altitude
Rises 02:21:26 0° 282° (WNW) 2,936 - -32.1°
Reaches altitude 10° 02:24:04 10° 268° (W) 2,053 - -31.9°
Maximum altitude 02:27:52 24° 215° (SW) 1,360 - -31.5°
Drops below altitude 10° 02:31:46 10° 162° (SSE) 2,102 - -31.1°
Sets 02:34:30 0° 149° (SSE) 3,022 - -30.8°
